| time (UTC) | temp F | wind direction | speed MPH | gust MPH | rain 1hr in | rain 24hr in | rain mn in | humidity % | barometer mb |
| 20260502163036 | 64 | 132 | 4.0 | 7.0 | 0.00 | 0.00 | 0.00 | 36 | 1010.7 |
| 20260502161539 | 63 | 155 | 0.0 | 3.0 | 0.00 | 0.00 | 0.00 | 38 | 1010.8 |
| 20260502151515 | 56 | 359 | 0.0 | 2.0 | 0.00 | 0.00 | 0.00 | 44 | 1010.7 |
| 20260502123003 | 49 | 1 | 0.0 | 2.0 | 0.00 | 0.00 | 0.00 | 46 | 1009.5 |
| 20260502121502 | 49 | 356 | 0.0 | 3.0 | 0.00 | 0.00 | 0.00 | 45 | 1009.5 |
| 20260502120134 | 50 | 20 | 0.0 | 0.0 | 0.00 | 0.00 | 0.00 | 47 | 1009.3 |
| 20260502114559 | 51 | 20 | 0.0 | 0.0 | 0.00 | 0.00 | 0.00 | 47 | 1009.3 |
| 20260502113058 | 51 | 20 | 0.0 | 1.0 | 0.00 | 0.00 | 0.00 | 49 | 1009.4 |
| 20260502111555 | 51 | 20 | 0.0 | 2.0 | 0.00 | 0.00 | 0.00 | 44 | 1009.4 |
| 20260502110054 | 50 | 20 | 0.0 | 3.0 | 0.00 | 0.00 | 0.00 | 41 | 1009.4 |
| 20260502104554 | 50 | 359 | 0.0 | 2.0 | 0.00 | 0.00 | 0.00 | 40 | 1009.4 |
| 20260502103051 | 51 | 357 | 1.0 | 3.0 | 0.00 | 0.00 | 0.00 | 39 | 1009.5 |
| 20260502101555 | 51 | 4 | 0.0 | 1.0 | 0.00 | 0.00 | 0.00 | 36 | 1009.4 |
| 20260502071529 | 55 | 27 | 1.0 | 2.0 | 0.00 | 0.00 | 0.00 | 28 | 1010.8 |
| 20260502070022 | 56 | 145 | 0.0 | 2.0 | 0.00 | 0.00 | 0.00 | 27 | 1010.8 |
| 20260502064520 | 56 | 148 | 1.0 | 1.0 | 0.00 | 0.00 | 0.00 | 26 | 1010.7 |
| 20260502063020 | 58 | 150 | 0.0 | 0.0 | 0.00 | 0.00 | 0.00 | 22 | 1010.7 |
| 20260502061519 | 58 | 150 | 0.0 | 1.0 | 0.00 | 0.00 | 0.00 | 22 | 1010.8 |
| 20260502060018 | 58 | 150 | 0.0 | 0.0 | 0.00 | 0.00 | 0.00 | 21 | 1010.8 |
| 20260502054522 | 59 | 150 | 0.0 | 1.0 | 0.00 | 0.00 | 0.00 | 21 | 1010.7 |
| 20260502053018 | 59 | 155 | 0.0 | 1.0 | 0.00 | 0.00 | 0.00 | 21 | 1010.8 |
| 20260502051522 | 59 | 157 | 2.0 | 3.0 | 0.00 | 0.00 | 0.00 | 20 | 1010.9 |
| 20260502050029 | 60 | 212 | 3.0 | 4.0 | 0.00 | 0.00 | 0.00 | 20 | 1010.9 |
| 20260502044515 | 60 | 163 | 0.0 | 2.0 | 0.00 | 0.00 | 0.00 | 19 | 1010.7 |
| 20260502043015 | 60 | 148 | 1.0 | 3.0 | 0.00 | 0.00 | 0.00 | 19 | 1010.7 |
| 20260502041523 | 60 | 141 | 0.0 | 2.0 | 0.00 | 0.00 | 0.00 | 19 | 1010.6 |
| 20260502040014 | 60 | 141 | 0.0 | 0.0 | 0.00 | 0.00 | 0.00 | 20 | 1010.5 |
| 20260502034514 | 61 | 111 | 0.0 | 0.0 | 0.00 | 0.00 | 0.00 | 19 | 1010.1 |
| 20260502033018 | 62 | 96 | 0.0 | 6.0 | 0.00 | 0.00 | 0.00 | 19 | 1009.8 |
| 20260502031512 | 63 | 98 | 0.0 | 4.0 | 0.00 | 0.00 | 0.00 | 18 | 1009.6 |
| 20260502030021 | 64 | 78 | 0.0 | 3.0 | 0.00 | 0.00 | 0.00 | 18 | 1009.4 |
| 20260502024510 | 65 | 116 | 0.0 | 5.0 | 0.00 | 0.00 | 0.00 | 17 | 1009.5 |
| 20260502023010 | 65 | 115 | 1.0 | 4.0 | 0.00 | 0.00 | 0.00 | 18 | 1009.4 |
| 20260502021509 | 67 | 103 | 0.0 | 4.0 | 0.00 | 0.00 | 0.00 | 18 | 1009.4 |
| 20260502020007 | 68 | 83 | 0.0 | 4.0 | 0.00 | 0.00 | 0.00 | 18 | 1009.3 |
| 20260502014506 | 68 | 120 | 0.0 | 5.0 | 0.00 | 0.00 | 0.00 | 17 | 1009.5 |
| 20260502013005 | 69 | 133 | 0.0 | 2.0 | 0.00 | 0.00 | 0.00 | 19 | 1009.5 |
| 20260502011512 | 69 | 118 | 2.0 | 7.0 | 0.00 | 0.00 | 0.00 | 18 | 1009.7 |
| 20260502010005 | 71 | 93 | 0.0 | 5.0 | 0.00 | 0.00 | 0.00 | 18 | 1009.7 |
| 20260502004502 | 71 | 101 | 1.0 | 5.0 | 0.00 | 0.00 | 0.00 | 17 | 1009.9 |
| 20260502003111 | 71 | 6 | 0.0 | 7.0 | 0.00 | 0.00 | 0.00 | 17 | 1009.9 |
| 20260502001558 | 71 | 65 | 4.0 | 11.0 | 0.00 | 0.00 | 0.00 | 17 | 1009.9 |
| 20260501234555 | 73 | 75 | 0.0 | 8.0 | 0.00 | 0.00 | 0.00 | 17 | 1010.1 |
| 20260501233056 | 72 | 165 | 4.0 | 11.0 | 0.00 | 0.00 | 0.00 | 17 | 1010.3 |
| 20260501231554 | 72 | 330 | 1.0 | 5.0 | 0.00 | 0.00 | 0.00 | 18 | 1010.3 |
| 20260501230054 | 72 | 103 | 1.0 | 9.0 | 0.00 | 0.00 | 0.00 | 19 | 1010.6 |
| 20260501224552 | 73 | 61 | 1.0 | 5.0 | 0.00 | 0.00 | 0.00 | 17 | 1010.8 |
| 20260501223055 | 73 | 188 | 5.0 | 11.0 | 0.00 | 0.00 | 0.00 | 17 | 1011.0 |
| 20260501221545 | 71 | 91 | 2.0 | 14.0 | 0.00 | 0.00 | 0.00 | 19 | 1011.5 |
| 20260501220049 | 73 | 92 | 3.0 | 7.0 | 0.00 | 0.00 | 0.00 | 20 | 1011.8 |
| 20260501214539 | 69 | 102 | 0.0 | 6.0 | 0.00 | 0.00 | 0.00 | 21 | 1012.1 |
| 20260501213047 | 69 | 148 | 8.0 | 12.0 | 0.00 | 0.00 | 0.00 | 20 | 1012.3 |
| 20260501211537 | 70 | 146 | 7.0 | 13.0 | 0.00 | 0.00 | 0.00 | 20 | 1012.5 |
| 20260501210041 | 71 | 166 | 1.0 | 9.0 | 0.00 | 0.00 | 0.00 | 20 | 1012.7 |
| 20260501204533 | 69 | 154 | 9.0 | 16.0 | 0.00 | 0.00 | 0.00 | 20 | 1012.7 |
| 20260501203032 | 68 | 197 | 6.0 | 16.0 | 0.00 | 0.00 | 0.00 | 21 | 1012.8 |
| 20260501201533 | 69 | 70 | 3.0 | 10.0 | 0.00 | 0.00 | 0.00 | 20 | 1013.0 |
| 20260501200029 | 69 | 109 | 2.0 | 6.0 | 0.00 | 0.00 | 0.00 | 20 | 1013.1 |
| 20260501194534 | 68 | 83 | 4.0 | 10.0 | 0.00 | 0.00 | 0.00 | 21 | 1013.3 |
| 20260501193027 | 69 | 127 | 2.0 | 11.0 | 0.00 | 0.00 | 0.00 | 23 | 1013.4 |
| 20260501191527 | 66 | 81 | 3.0 | 9.0 | 0.00 | 0.00 | 0.00 | 23 | 1013.5 |
| 20260501190021 | 68 | 69 | 3.0 | 9.0 | 0.00 | 0.00 | 0.00 | 24 | 1013.6 |
| 20260501184520 | 66 | 167 | 6.0 | 19.0 | 0.00 | 0.00 | 0.00 | 24 | 1013.9 |
| 20260501183021 | 66 | 150 | 0.0 | 14.0 | 0.00 | 0.00 | 0.00 | 26 | 1014.2 |
| 20260501181517 | 65 | 214 | 0.0 | 9.0 | 0.00 | 0.00 | 0.00 | 25 | 1014.4 |
| 20260501180013 | 64 | 146 | 7.0 | 13.0 | 0.00 | 0.00 | 0.00 | 27 | 1014.4 |
| 20260501174515 | 65 | 161 | 3.0 | 11.0 | 0.00 | 0.00 | 0.00 | 27 | 1014.5 |
| 20260501173010 | 63 | 162 | 6.0 | 12.0 | 0.00 | 0.00 | 0.00 | 27 | 1014.5 |
| 20260501171511 | 63 | 219 | 4.0 | 9.0 | 0.00 | 0.00 | 0.00 | 27 | 1014.5 |